Regional Weather Roundup
Issued by NWS

Home | Current Version | Previous Version | Graphics & Text | Print | Product List | Glossary On
Versions: 1 2 3 4 5 6 7 8 9 10 11 12 13 14 15 16 17 18 19 20 21 22 23 24 25 26 27 28 29 30 31 32 33 34 35 36 37 38 39 40 41 42 43 44 45 46 47 48 49 50
000
ASUS45 KSLC 221010
RWRUT

UTAH REGIONAL WEATHER ROUNDUP
NATIONAL WEATHER SERVICE SALT LAKE CITY UT
300 AM MST SAT NOV 22 2014

UTZ001>011-023>025-221100-

NORTHERN UTAH

CITY           SKY/WX    TMP DP  RH WIND       PRES   REMARKS
BRIGHAM CITY   CLOUDY    33  26  76 CALM      29.97R
HILL AFB       CLOUDY    42  24  49 S14       29.96R
LOGAN          MOCLDY    31  26  82 NE6       29.93R WCI  25
OGDEN          CLOUDY    39  25  57 S5        29.96R
PROVO AIRPORT  PTCLDY    25  18  74 CALM      29.99F
SALT LAKE CITY PTCLDY    39  24  55 SE7       29.95R WCI  34
VERNAL         PTCLDY    24  14  65 W3        30.04F
WENDOVER       CLOUDY    32  21  64 W5        29.97S WCI  27
HEBER CITY     CLEAR     25  19  80 CALM      29.99F
WEST JORDAN    CLEAR     43  28  56 S15       29.97S

$$

UTZ012>022-026-027-221100-

SOUTHERN/CENTRAL UTAH

CITY           SKY/WX    TMP DP  RH WIND       PRES   REMARKS
BLANDING       PTCLDY    28  19  69 CALM      30.18S
BRYCE CANYON   PTCLDY    20  15  81 W5        30.12F WCI  13
CEDAR CITY     PTCLDY    33  23  66 S7        30.08R WCI  27
DELTA          MOCLDY    35  25  65 S12       29.99F WCI  27
MILFORD        CLEAR     35  22  58 SW16      30.03F WCI  25
MOAB/CYNLANDS  CLEAR     23  13  65 CALM      30.07F
PRICE          MOCLDY    26  13  57 N5        30.06S WCI  20
ST GEORGE      SUNNY     39  18  41 CALM      30.10R
KANAB          PTCLDY    27  14  59 E6        30.16R WCI  20

$$

REGIONAL REPORTS     COLORADO/ARIZONA

CITY           SKY/WX    TMP DP  RH WIND       PRES   REMARKS
CRAIG, CO      CLEAR     17  12  80 E3        30.05S
GRAND JUNCTION CLEAR     26  16  65 E3        30.10R
RIFLE          CLEAR     22  17  81 CALM      30.12R
MONTROSE       CLEAR     22  17  81 S8        30.14R WCI  12
CORTEZ         CLEAR     18  15  88 NE3       30.13R
PAGE, AZ       NOT AVBL
GRAND CANYON   PTCLDY    15   7  70 CALM      30.15S
KINGMAN        CLEAR     35  19  52 SE3       30.08S
FLAGSTAFF      PTCLDY    19  13  77 CALM      30.14S

$$

REGIONAL REPORTS    NEVADA/IDAHO/WYOMING

CITY           SKY/WX    TMP DP  RH WIND       PRES   REMARKS
LAS VEGAS, NV  CLEAR     51  29  42 SW7       30.02R
ELY            PTCLDY    29  19  66 S9        30.07R WCI  20
ELKO           CLOUDY    42  32  67 S9        29.99F
POCATELLO, ID  CLOUDY    41  26  55 SW16G25   29.87S
BURLEY         CLOUDY    43  31  62 SW9       29.83F
EVANSTON, WY   PTCLDY    31  21  66 SW14      29.93F WCI  21
ROCK SPRINGS   MOCLDY    32  17  54 SW14      29.91F WCI  22
KEMMERER       PTCLDY    28  21  74 CALM      29.91F

$$



USA.gov is the U.S. government's official web portal to all federal, state and local government web resources and services.